THOR ABLESTAR DEB, 351

Orbit data source: Space-Track

THOR ABLESTAR DEB, 351 is space debris in LEO originally from a launch on Thu, 29 Jun 1961 UTC launched from the Air Force Eastern Test Range (AFETR). Debris objects in space refer to the collection of defunct objects orbiting the Earth. Examples of debris include non-operational satellites, rocket bodies, and fragments generated from explosions, collisions, or faulty payload assembly.

Loading next visibility...
Identifier
351, 1961-015DR
Orbit
LEO
Country
Flag of USUS
Related business
Manufacturer
Unknown
Mission
Spacecraft
Bus & Motor
Unknown
Mass
Unknown
Launch date (UTC)
1961-06-29 (65 years ago)
Launch vehicle
Unknown
Launch site
Air Force Eastern Test Range (AFETR)
Object type
Payload
Rocket body
Debris
Shape & HBR
Unknown shape, 0.1 m
Radar Cross Section
Medium (>0.1 m² and <1 m²)

Expand to show TLE details & history
Last TLE update: 4 hours ago

TLE from 4 hours ago
0 THOR ABLESTAR DEB
1 00351U 61015DR  26195.61137932  .00004540  00000-0  51537-3 0  9994
2 00351  66.7401   7.3466 0029932 283.0003  76.7783 14.86982337381812
Epoch: 2026-07-14T14:40Z
TLE epoch observation values (Epoch: 2026-07-14T14:40:23.173Z)
Latitude
0.00001°
Longitude
-145.229°
Altitude
604.813 km
Speed
7.56 km/s
True Right ascension
00h 29m 23s
True Declination
0° 00' 00"
Sunlit
Object was in daylight at epoch
Visualization orbit readout
Latitude
Unknown
Longitude
Unknown
Altitude
Unknown
Speed
Unknown
Apparent Right ascension
Unknown
Apparent Declination
Unknown
Sunlit
N/A
Visualization observer readout
Local Sidereal Time
07:25:46
Azimuth
Unknown
Elevation
Unknown
Doppler factor
Unknown
Orbital elements
Apogee altitude
626.602 km
Perigee altitude
584.794 km
Semi-major axis
6,983.835 km
Eccentricity
0.00299
Inclination
66.7401°
RAAN
7.3466°
Arg. of periapsis
283.0003°
True anomaly
77.11249°
Mean anomaly
76.7783°
Eccentric anomaly
76.94537°
Mean motion
3.7188 °/min
Orbital period
96.81 mins
BSTAR
0.00051537
Loading maneuver chart data...
Computing Atmospheric mass density...

Documentation

Showing up to 5 results
|